Change the Weather History Date:

Friday, February 1, 2013

  Actual Average Record
Temperature  
Mean Temperature 23 °F -  
Max Temperature 27 °F 41 °F 68 °F (1989)
Min Temperature 18 °F 20 °F 6 °F (2005)
Degree Days  
Heating Degree Days 42    
Moisture  
Dew Point 7 °F    
Average Humidity 48    
Maximum Humidity 63    
Minimum Humidity 37    
Precipitation  
Precipitation 0.00 in - - ()
Sea Level Pressure  
Sea Level Pressure 30.05 in    
Wind  
Wind Speed 14 mph (West)    
Max Wind Speed 28 mph    
Max Gust Speed 36 mph    
Visibility 10 miles    
Events      
Averages and records for this station are not official NWS values.
T = Trace of Precipitation, MM = Missing Value Source: NWS Daily Summary

Daily Weather History Graph

Daily Weather History Graph

Search for Another Location

Airport or City:

Trip Planner

Search our weather history database for the weather conditions in past years. The results will help you decide how hot, cold, wet, or windy it might be!

Date:

Astronomy

Feb. 01, 2013 Rise Set
Actual Time 7:13 AM EST 5:24 PM EST
Civil Twilight 6:45 AM EST 5:53 PM EST
Nautical Twilight 6:12 AM EST 6:25 PM EST
Astronomical Twilight 5:40 AM EST 6:57 PM EST
Moon 11:29 PM EST (2/1) 9:45 AM EST (2/1)
Length of Visible Light 11h 08m
Length of Day
10h 10m
Waning Gibbous, 70% of the Moon is Illuminated
Feb 1
Waning Gibbous
Feb 3
Last Quarter
Feb 10
New
Feb 17
First Quarter
Feb 25
Full

Hourly Weather History & Observations

Time (EST) Temp. Windchill Dew Point Humidity Pressure Visibility Wind Dir Wind Speed Gust Speed Precip Events Conditions
12:53 AM 27.0 °F 18.0 °F 9.0 °F 47% 29.85 in 10.0 mi WSW 9.2 mph - N/A   Clear
1:53 AM 26.1 °F 18.4 °F 10.0 °F 51% 29.84 in 10.0 mi SW 6.9 mph - N/A   Clear
2:53 AM 26.1 °F 16.8 °F 10.9 °F 53% 29.84 in 10.0 mi SW 9.2 mph - N/A   Clear
3:53 AM 27.0 °F 19.5 °F 12.0 °F 53% 29.84 in 10.0 mi SW 6.9 mph - N/A   Overcast
4:53 AM 27.0 °F 21.6 °F 12.9 °F 56% 29.84 in 10.0 mi WSW 4.6 mph - N/A   Overcast
5:53 AM 26.1 °F 19.4 °F 15.1 °F 63% 29.86 in 10.0 mi NW 5.8 mph - N/A   Overcast
7:53 AM 27.0 °F 13.9 °F 15.1 °F 61% 29.89 in 10.0 mi WNW 18.4 mph 27.6 mph N/A   Overcast
8:53 AM 25.0 °F 10.6 °F 9.0 °F 51% 29.94 in 10.0 mi NW 20.7 mph 32.2 mph N/A   Overcast
9:53 AM 26.1 °F 11.3 °F 5.0 °F 41% 29.97 in 10.0 mi WNW 23.0 mph 32.2 mph N/A   Clear
10:53 AM 27.0 °F 11.3 °F 5.0 °F 39% 29.99 in 10.0 mi WNW 27.6 mph 33.4 mph N/A   Partly Cloudy
1:53 PM 27.0 °F 11.6 °F 3.9 °F 37% 30.05 in 10.0 mi WNW 26.5 mph 31.1 mph N/A   Mostly Cloudy
2:53 PM 26.1 °F 10.7 °F 3.9 °F 39% 30.08 in 10.0 mi WNW 25.3 mph 35.7 mph N/A   Scattered Clouds
3:53 PM 26.1 °F 11.3 °F 3.0 °F 37% 30.12 in 10.0 mi WNW 23.0 mph - N/A   Mostly Cloudy
4:53 PM 25.0 °F 9.9 °F 3.9 °F 41% 30.14 in 10.0 mi WNW 23.0 mph 29.9 mph N/A   Scattered Clouds
5:53 PM 23.0 °F 9.2 °F 3.0 °F 42% 30.19 in 10.0 mi West 17.3 mph - N/A   Clear
6:53 PM 21.9 °F 9.2 °F 3.9 °F 46% 30.22 in 10.0 mi West 13.8 mph 25.3 mph N/A   Clear
7:53 PM 21.0 °F 7.1 °F 5.0 °F 50% 30.25 in 10.0 mi West 16.1 mph 23.0 mph N/A   Clear
8:53 PM 19.9 °F 4.8 °F 5.0 °F 52% 30.27 in 10.0 mi West 18.4 mph 26.5 mph N/A   Clear
9:53 PM 19.9 °F 7.3 °F 3.9 °F 50% 30.30 in 10.0 mi West 12.7 mph - N/A   Clear
10:53 PM 19.0 °F 5.0 °F 3.9 °F 52% 30.31 in 10.0 mi West 15.0 mph - N/A   Clear
11:53 PM 18.0 °F 3.6 °F 3.9 °F 54% 30.32 in 10.0 mi West 15.0 mph 23.0 mph N/A   Clear